Time,TemperatureF,DewpointF,PressureIn,WindDirection,WindDirectionDegrees,WindSpeedMPH,WindSpeedGustMPH,Humidity,HourlyPrecipIn,Conditions,Clouds,dailyrainin,SoftwareType,DateUTC
2013-08-08 00:02:00,77.0,-99.9,29.96,North,-999,-999.0,-999.0,-999,-99.99,,,-99.99,,2013-08-08 04:02:00,
2013-08-08 01:22:00,77.0,-99.9,29.95,North,-999,-999.0,-999.0,-999,-99.99,,,-99.99,,2013-08-08 05:22:00,
2013-08-08 01:43:00,77.0,-99.9,29.94,North,-999,-999.0,-999.0,-999,-99.99,,,-99.99,,2013-08-08 05:43:00,
2013-08-08 02:32:00,76.0,-99.9,29.94,North,-999,-999.0,-999.0,-999,-99.99,,,-99.99,,2013-08-08 06:32:00,
2013-08-08 02:43:00,76.0,-99.9,29.93,North,-999,-999.0,-999.0,-999,-99.99,,,-99.99,,2013-08-08 06:43:00,
2013-08-08 02:52:00,76.0,-99.9,29.93,North,-999,-999.0,-999.0,-999,-99.99,,,-99.99,,2013-08-08 06:52:00,
2013-08-08 03:02:00,76.0,-99.9,29.93,North,-999,-999.0,-999.0,-999,-99.99,,,-99.99,,2013-08-08 07:02:00,
2013-08-08 03:12:00,77.0,-99.9,29.93,North,-999,-999.0,-999.0,-999,-99.99,,,-99.99,,2013-08-08 07:12:00,
2013-08-08 03:32:00,77.0,-99.9,29.93,North,-999,-999.0,-999.0,-999,-99.99,,,-99.99,,2013-08-08 07:32:00,
2013-08-08 03:43:00,77.0,-99.9,29.93,North,-999,-999.0,-999.0,-999,-99.99,,,-99.99,,2013-08-08 07:43:00,
2013-08-08 03:53:00,77.0,-99.9,29.93,North,-999,-999.0,-999.0,-999,-99.99,,,-99.99,,2013-08-08 07:53:00,
2013-08-08 04:02:00,76.0,-99.9,29.93,North,-999,-999.0,-999.0,-999,-99.99,,,-99.99,,2013-08-08 08:02:00,
2013-08-08 04:11:00,76.0,-99.9,29.93,North,-999,-999.0,-999.0,-999,-99.99,,,-99.99,,2013-08-08 08:11:00,
2013-08-08 04:32:00,76.0,-99.9,29.93,North,-999,-999.0,-999.0,-999,-99.99,,,-99.99,,2013-08-08 08:32:00,
2013-08-08 04:43:00,76.0,-99.9,29.92,North,-999,-999.0,-999.0,-999,-99.99,,,-99.99,,2013-08-08 08:43:00,
2013-08-08 04:53:00,76.0,-99.9,29.92,North,-999,-999.0,-999.0,-999,-99.99,,,-99.99,,2013-08-08 08:53:00,
2013-08-08 05:02:00,76.0,-99.9,29.92,North,-999,-999.0,-999.0,-999,-99.99,,,-99.99,,2013-08-08 09:02:00,
2013-08-08 05:12:00,76.0,-99.9,29.92,North,-999,-999.0,-999.0,-999,-99.99,,,-99.99,,2013-08-08 09:12:00,
2013-08-08 05:32:00,77.0,-99.9,29.92,North,-999,-999.0,-999.0,-999,-99.99,,,-99.99,,2013-08-08 09:32:00,
2013-08-08 06:01:00,77.0,-99.9,29.92,North,-999,-999.0,-999.0,-999,-99.99,,,-99.99,,2013-08-08 10:01:00,
2013-08-08 06:12:00,77.0,-99.9,29.92,North,-999,-999.0,-999.0,-999,-99.99,,,-99.99,,2013-08-08 10:12:00,
2013-08-08 06:22:00,77.0,-99.9,29.92,North,-999,-999.0,-999.0,-999,-99.99,,,-99.99,,2013-08-08 10:22:00,
2013-08-08 07:43:00,77.0,-99.9,29.93,North,-999,-999.0,-999.0,-999,-99.99,,,-99.99,,2013-08-08 11:43:00,
2013-08-08 08:02:00,77.0,-99.9,29.93,North,-999,-999.0,-999.0,-999,-99.99,,,-99.99,,2013-08-08 12:02:00,
2013-08-08 08:43:00,79.0,-99.9,29.94,North,-999,-999.0,-999.0,-999,-99.99,,,-99.99,,2013-08-08 12:43:00,
2013-08-08 09:43:00,82.0,-99.9,29.96,North,-999,-999.0,-999.0,-999,-99.99,,,-99.99,,2013-08-08 13:43:00,
2013-08-08 09:53:00,82.0,-99.9,29.96,North,-999,-999.0,-999.0,-999,-99.99,,,-99.99,,2013-08-08 13:53:00,
2013-08-08 10:44:00,85.0,-99.9,29.98,North,-999,-999.0,-999.0,-999,-99.99,,,-99.99,,2013-08-08 14:44:00,
2013-08-08 11:02:00,85.0,-99.9,29.98,North,-999,-999.0,-999.0,-999,-99.99,,,-99.99,,2013-08-08 15:02:00,
2013-08-08 11:43:00,86.0,-99.9,29.99,North,-999,-999.0,-999.0,-999,-99.99,,,-99.99,,2013-08-08 15:43:00,
2013-08-08 12:32:00,87.0,-99.9,29.98,North,-999,-999.0,-999.0,-999,-99.99,,,-99.99,,2013-08-08 16:32:00,
2013-08-08 12:42:00,87.0,-99.9,29.98,North,-999,-999.0,-999.0,-999,-99.99,,,-99.99,,2013-08-08 16:42:00,
2013-08-08 13:02:00,89.0,-99.9,29.98,North,-999,-999.0,-999.0,-999,-99.99,,,-99.99,,2013-08-08 17:02:00,
2013-08-08 13:43:00,89.0,-99.9,29.98,North,-999,-999.0,-999.0,-999,-99.99,,,-99.99,,2013-08-08 17:43:00,
2013-08-08 14:02:00,90.0,-99.9,29.98,North,-999,-999.0,-999.0,-999,-99.99,,,-99.99,,2013-08-08 18:02:00,
2013-08-08 14:43:00,91.0,-99.9,29.96,North,-999,-999.0,-999.0,-999,-99.99,,,-99.99,,2013-08-08 18:43:00,
2013-08-08 15:02:00,90.0,-99.9,29.96,North,-999,-999.0,-999.0,-999,-99.99,,,-99.99,,2013-08-08 19:02:00,
2013-08-08 15:12:00,90.0,-99.9,29.96,North,-999,-999.0,-999.0,-999,-99.99,,,-99.99,,2013-08-08 19:12:00,
2013-08-08 15:43:00,91.0,-99.9,29.96,North,-999,-999.0,-999.0,-999,-99.99,,,-99.99,,2013-08-08 19:43:00,
2013-08-08 15:59:00,92.0,-99.9,29.95,North,-999,-999.0,-999.0,-999,-99.99,,,-99.99,,2013-08-08 19:59:00,
2013-08-08 16:42:00,87.0,-99.9,29.93,North,-999,-999.0,-999.0,-999,-99.99,,,-99.99,,2013-08-08 20:42:00,
2013-08-08 16:53:00,87.0,-99.9,29.93,North,-999,-999.0,-999.0,-999,-99.99,,,-99.99,,2013-08-08 20:53:00,
2013-08-08 17:01:00,88.0,-99.9,29.93,North,-999,-999.0,-999.0,-999,-99.99,,,-99.99,,2013-08-08 21:01:00,
2013-08-08 17:46:00,87.0,-99.9,29.92,North,-999,-999.0,-999.0,-999,-99.99,,,-99.99,,2013-08-08 21:46:00,
2013-08-08 18:49:00,81.0,-99.9,29.94,North,-999,-999.0,-999.0,-999,-99.99,,,-99.99,,2013-08-08 22:49:00,
2013-08-08 18:58:00,82.0,-99.9,29.93,North,-999,-999.0,-999.0,-999,-99.99,,,-99.99,,2013-08-08 22:58:00,
2013-08-08 19:07:00,82.0,-99.9,29.93,North,-999,-999.0,-999.0,-999,-99.99,,,-99.99,,2013-08-08 23:07:00,
2013-08-08 20:06:00,80.0,-99.9,29.96,North,-999,-999.0,-999.0,-999,-99.99,,,-99.99,,2013-08-09 00:06:00,
2013-08-08 20:17:00,80.0,-99.9,29.96,North,-999,-999.0,-999.0,-999,-99.99,,,-99.99,,2013-08-09 00:17:00,
2013-08-08 20:36:00,80.0,-99.9,29.97,North,-999,-999.0,-999.0,-999,-99.99,,,-99.99,,2013-08-09 00:36:00,
2013-08-08 20:48:00,79.0,-99.9,29.97,North,-999,-999.0,-999.0,-999,-99.99,,,-99.99,,2013-08-09 00:48:00,
2013-08-08 20:58:00,80.0,-99.9,29.97,North,-999,-999.0,-999.0,-999,-99.99,,,-99.99,,2013-08-09 00:58:00,
2013-08-08 21:03:00,79.0,-99.9,29.98,North,-999,-999.0,-999.0,-999,-99.99,,,-99.99,,2013-08-09 01:03:00,
2013-08-08 22:26:00,77.0,-99.9,29.99,North,-999,-999.0,-999.0,-999,-99.99,,,-99.99,,2013-08-09 02:26:00,
2013-08-08 22:47:00,77.0,-99.9,30.00,North,-999,-999.0,-999.0,-999,-99.99,,,-99.99,,2013-08-09 02:47:00,
2013-08-08 23:08:00,77.0,-99.9,30.01,North,-999,-999.0,-999.0,-999,-99.99,,,-99.99,,2013-08-09 03:08:00,
2013-08-08 23:48:00,76.0,-99.9,30.02,North,-999,-999.0,-999.0,-999,-99.99,,,-99.99,,2013-08-09 03:48:00,